Voltar ao catálogo

SL-8 DEB

AtivoLEO
NORAD 10524·DEBRIS·🇷🇺 Russia

Lançado Dec 16, 1977 de Plesetsk Cosmodrome

Loading…

Próximas Passagens (próximas 24 horas)

TLE

AtualizadoSource: Space-Track

Época: Sep 14, 2026, 07:56 UTC

1 10524U 77119C   26257.33122571  .00003651  00000-0  40775-3 0  9994
2 10524  74.0212 226.0915 0006661 202.5465 157.5423 14.87364167579610

Acompanhe SL-8 DEB em tempo real com AllMySat

Download on the App Store